Terminal Aerodrome Forecast
Issued by NWS Sioux Falls, SD

Home | Current Version | Previous Version | Graphics & Text | Print | Product List | Glossary Off
Versions: 1 2 3 4 5 6 7 8 9 10 11 12 13 14 15 16 17 18 19 20 21

000
FTUS43 KFSD 272247 CCA
TAFFSD
TAF COR
KFSD 272247Z 2723/2818 12008KT 6SM TSRA SCT025CB BKN080
      TEMPO 2723/2724 5SM TSRA BKN025CB
     FM280200 10011KT 5SM SHRA BKN020 OVC035
     FM280900 05007KT 3SM BR OVC007
     FM281400 04010KT 6SM BR OVC010=

USA.gov is the U.S. government's official web portal to all federal, state and local government web resources and services.